www.pogodaiklimat.ru

Погода и климат >> Архив погоды >> Малайзия >> Kuala Lumpur Int Airport


ПОГОДА в Kuala Lumpur Int Airport

  • Прогноз погоды в Kuala Lumpur Int Airport
  • Монитор погоды в Kuala Lumpur Int Airport
  • Климат города

АРХИВ ПОГОДЫ в Kuala Lumpur Int Airport

Время (UTC), дата Ветер
(напр.,м/с)
 
Видим.   Явления Облачность Т
(С)
Тd
(С)
f
(%)
Тe
(С)
Тes
(С)
Комфортность P
(гПа)
Po
(гПа)
Тmin
(С)
Tmax
(С)
R
(мм)
R24
(мм)
S
(см)
00 7.12 СВ 2 9000 м мгла 9/3 500 м
[Cb cap Ac lent Ci sp]
+25.4 +24.1 93 +35 +35 очень
душно
1009.0 1007.1 +24.5 12
03 7.12 С 2 10 км мгла 9/3 500 м
[Cb cap Ac lent Ci sp]
+30.0 +25.0 75 +43 +49 опасность
перегрева
1010.4 1008.5
06 7.12 З 3 10 км гроза без осадков 9/5 500 м
[Cb cap Ac lent Ci sp]
+30.5 +25.7 76 +45 +50 опасность
перегрева
1008.2 1006.4
09 7.12 С 2 9000 м в посл. час гроза 9/3 500 м
[Cb cap Ac lent Cs]
+25.0 +24.1 95 +34 +37 очень
душно
1007.0 1005.1
12 7.12 С 2 10 км мгла {гроза, дождь} 9/3 900 м
[Sc Ac lent Cs]
+25.3 +24.0 93 +35 +35 очень
душно
1008.7 1006.8 +31.6 41
15 7.12 СЗ 1 9000 м в посл. час дождь 9/3 500 м
[Cb cap Ac lent Ci sp]
+25.5 +24.6 95 +36 +36 очень
душно
1010.4 1008.5
18 7.12 штиль 0 9000 м мгла {дождь} 9/1 900 м
[Sc Ac lent Ci sp]
+25.1 +24.2 95 +35 +35 очень
душно
1009.8 1007.9 0.2
21 7.12 штиль 0 7000 м зарница 9/3 500 м
[Cb cap Ac lent Ci sp]
+24.4 +23.9 97 +33 +33 очень
душно
1008.5 1006.6
00 8.12 В 2 9000 м мгла 9/3 500 м
[Cb cap Ac lent Ci sp]
+24.6 +23.7 95 +33 +34 очень
душно
1009.5 1007.6 +24.0 41
03 8.12 ЮВ 1 10 км мгла 9/1 500 м
[Cb cap Ac lent Ci sp]
+29.3 +24.4 75 +41 +49 опасность
перегрева
1010.9 1009.0
06 8.12 ЮЗ 1 14 км мгла 9/3 540 м
[Cu hum Ac lent Ci sp]
+30.9 +25.4 73 +45 +53 опасность
перегрева
1009.0 1007.1
09 8.12 Ю 2 10 км гроза без осадков 9/4 500 м
[Cb cap Ac lent Ci sp]
+29.6 +25.5 79 +44 +46 опасность
перегрева
1006.7 1004.9
12 8.12 штиль 0 10 км мгла {гроза} 9/3 900 м
[Sc Ac lent Ci sp]
+27.7 +25.4 87 +40 +40 очень
душно
1009.0 1007.1 +30.9
15 8.12 В 1 10 км мгла 9/1 900 м
[Sc Ac lent Ci sp]
+26.7 +25.0 90 +38 +38 очень
душно
1010.6 1008.7
18 8.12 штиль 0 7000 м мгла 9/1 900 м
[Sc Ac lent Ci sp]
+25.8 +24.8 94 +37 +37 очень
душно
1010.3 1008.4
21 8.12 штиль 0 8000 м зарница 9/4 300 м
[Cb cap Ac lent Ci sp]
+25.1 +24.5 96 +35 +35 очень
душно
1008.8 1006.9
00 9.12 С 1 7000 м дымка 9/3 150 м
[Cb cap Ac lent Ci sp]
+25.5 +24.7 95 +36 +36 очень
душно
1010.8 1008.9 +24.6
03 9.12 З 3 10 км мгла 9/3 500 м
[Cb cap Ac lent Ci sp]
+28.5 +25.4 83 +42 +46 опасность
перегрева
1011.0 1009.1
06 9.12 ЮЗ 3 10 км осадки на расстоянии 9/4 500 м
[Cb cap Ac lent Ci sp]
+29.8 +25.6 78 +44 +49 опасность
перегрева
1008.3 1006.5
09 9.12 С 3 10 км мгла {гроза} 9/4 500 м
[Cb cap Ac lent Ci sp]
+27.2 +23.9 82 +37 +39 очень
душно
1007.1 1005.2
12 9.12 С 3 10 км зарница {гроза} 9/3 500 м
[Cb cap Ac lent Ci sp]
+25.4 +23.5 89 +34 +34 очень
душно
1008.9 1007.0 +32.2
15 9.12 СВ 2 10 км мгла 9/3 900 м
[Sc Ac lent Ci sp]
+26.0 +23.9 88 +36 +36 очень
душно
1010.3 1008.4
18 9.12 В 1 9000 м в посл. час дождь 9/3 500 м
[Cb cap Ac lent Ci sp]
+25.9 +24.7 93 +37 +37 очень
душно
1009.5 1007.6 0.2
21 9.12 штиль 0 9000 м зарница 9/1 500 м
[Cb cap Ac lent Ci sp]
+25.3 +24.3 94 +35 +35 очень
душно
1007.7 1005.8
00 10.12 штиль 0 10 км мгла 9/1 500 м
[Cb cap Ac lent Ci sp]
+25.4 +24.6 95 +36 +36 очень
душно
1009.1 1007.2 +25.0 0.2
03 10.12 Ю 1 10 км мгла 9/3 500 м
[Cb cap Ac lent Ci sp]
+30.6 +25.6 75 +45 +51 опасность
перегрева
1010.8 1008.9
06 10.12 З 3 10 км осадки на расстоянии 9/5 500 м
[Cb cap Ac lent Ci fib]
+30.4 +25.6 76 +45 +49 опасность
перегрева
1008.2 1006.4
09 10.12 З 2 10 км в посл. час гроза {ливн. осадки} 9/3 500 м
[Cb cap Ac lent Ci sp]
+28.1 +26.0 88 +42 +44 опасность
перегрева
1007.3 1005.5
12 10.12 С 2 10 км мгла {гроза, ливн. осадки} 9/1 900 м
[Sc Ac lent Ci sp]
+27.4 +25.4 89 +40 +40 очень
душно
1009.0 1007.1 +31.7 17
15 10.12 СВ 2 10 км мгла 9/3 900 м
[Sc Ac lent Ci sp]
+26.7 +24.5 88 +38 +38 очень
душно
1011.0 1009.1
18 10.12 С 1 10 км зарница {дождь} 9/3 500 м
[Cb cap Ac lent Ci sp]
+26.0 +24.6 92 +37 +37 очень
душно
1009.8 1007.9 0.0
21 10.12 ЮЗ 1 10 км зарница 9/3 500 м
[Cb cap Ac lent Ci sp]
+25.5 +24.7 95 +36 +36 очень
душно
1009.1 1007.2
00 11.12 Ю 1 9000 м дымка 9/3 210 м
[Cb cap Ac lent Ci sp]
+25.5 +24.9 96 +36 +36 очень
душно
1010.7 1008.8 +25.1 17
03 11.12 СВ 2 10 км мгла 9/4 500 м
[Cb cap Ac lent Ci sp]
+29.4 +25.3 79 +43 +48 опасность
перегрева
1011.5 1009.6
06 11.12 ЮЗ 3 10 км мгла 9/4 500 м
[Cb cap Ac lent Ci sp]
+29.2 +25.2 79 +42 +47 опасность
перегрева
1009.5 1007.6
09 11.12 штиль 0 8000 м гроза, ливневой дождь 9/5 240 м
[Cb cap Ac lent Cs]
+27.7 +25.9 90 +41 +44 опасность
перегрева
1008.0 1006.2
12 11.12 СВ 2 10 км в посл. час дождь 9/3 500 м
[Cb cap Ac lent Ci sp]
+26.7 +25.8 95 +40 +40 очень
душно
1009.8 1007.9 +30.4 1
15 11.12 С 1 9000 м зарница 9/3 500 м
[Cb cap Ac lent Ci sp]
+26.0 +24.8 93 +37 +37 очень
душно
1011.1 1009.2
18 11.12 СЗ 1 10 км зарница 9/3 500 м
[Cb cap Ac lent Ci sp]
+25.2 +24.0 93 +35 +35 очень
душно
1010.6 1008.7
21 11.12 СВ 1 7000 м зарница 9/3 500 м
[Cb cap Ac lent Ci sp]
+24.8 +24.0 95 +34 +34 очень
душно
1009.1 1007.2
00 12.12 штиль 0 9000 м мгла 9/3 500 м
[Cb cap Ac lent Ci sp]
+24.9 +24.0 95 +34 +35 очень
душно
1010.9 1009.0 +24.5 1
03 12.12 ЮЗ 2 10 км мгла 9/3 500 м
[Cb cap Ac lent Ci sp]
+28.9 +24.5 77 +41 +46 опасность
перегрева
1012.3 1010.4
06 12.12 ЮВ 2 10 км мгла 9/4 500 м
[Cb cap Ac lent Ci sp]
+32.4 +24.8 64 +45 +52 опасность
перегрева
1009.7 1007.8
09 12.12 СВ 5 3000 м гроза, ливневой дождь 9/5 150 м
[Cb cap Ac lent Cs]
+26.1 +25.1 94 +37 +38 очень
душно
1008.2 1006.3
12 12.12 СВ 1 8000 м слабый ливневой дождь, в посл. час гроза 9/5 240 м
[Cb cap Ac lent Ci sp]
+24.9 +24.1 95 +34 +34 очень
душно
1010.2 1008.3 +32.8 9
15 12.12 В 2 10 км зарница {дождь} 9/1 500 м
[Cb cap Ac lent Ci sp]
+25.3 +24.4 95 +35 +35 очень
душно
1011.0 1009.1
18 12.12 Ю 1 10 км зарница 9/1 500 м
[Cb cap Ac lent Ci sp]
+25.1 +23.8 93 +34 +34 очень
душно
1010.8 1008.9 0.0
21 12.12 ЮВ 1 10 км зарница 9/3 500 м
[Cb cap Ac lent Ci sp]
+25.6 +24.4 93 +36 +36 очень
душно
1009.8 1007.9
00 13.12 ЮВ 1 10 км мгла {дождь} 9/4 180 м
[Sc Ac lent Cs]
+25.3 +24.3 94 +35 +35 очень
душно
1011.6 1009.7 +24.7 9
03 13.12 ЮВ 2 10 км мгла 9/1 540 м
[Cu med, cong Ac lent Ci sp]
+29.5 +24.4 74 +41 +48 опасность
перегрева
1011.8 1009.9
06 13.12 СВ 4 10 км мгла 9/4 500 м
[Cb cap Ac lent Ci sp]
+31.9 +24.8 66 +45 +49 опасность
перегрева
1010.2 1008.3
09 13.12 СВ 4 10 км мгла 9/4 500 м
[Cb cap Ac lent Ci sp]
+30.0 +24.0 70 +41 +43 опасность
перегрева
1009.1 1007.2
12 13.12 СВ 4 10 км мгла 9/3 900 м
[Sc Ac lent Ci sp]
+27.5 +22.7 75 +36 +36 очень
душно
1010.6 1008.7 +32.0
15 13.12 В 2 10 км зарница 9/3 500 м
[Cb cap Ac lent Ci sp]
+26.1 +22.7 82 +35 +35 очень
душно
1011.7 1009.8
18 13.12 ЮЗ 2 10 км зарница 9/3 500 м
[Cb cap Ac lent Ci sp]
+24.7 +23.1 91 +33 +33 очень
душно
1011.7 1009.8
21 13.12 ЮЗ 1 10 км зарница 9/3 500 м
[Cb cap Ac lent Ci sp]
+24.5 +23.0 91 +32 +32 очень
душно
1010.2 1008.3

 

Местоположение метеостанции Kuala Lumpur Int Airport (Малайзия): широта 2.72 долгота 101.70 высота над уровнем моря 17 м.

В архиве по умолчанию представлена погода в Kuala Lumpur Int Airport за последнюю неделю. Архивные данные за месяц целиком и за предыдущие месяцы, начиная с января 2011 года, Вы можете получить, выбрав интересующий диапазон дат из раскрывающегося списка и нажав кнопку "Ввод!".


*Определитесь, кто Вы:
робот инопланетянин человек

Внимание! Время в таблицах - всемирное. Для получения местного времени необходимо прибавить поправку, которая в Kuala Lumpur Int Airport равна 7 ч.

Смотрите также архив погоды в соседних городах и на ближайших метеорологических станциях:

Погода в Kuala Lumpur (Малайзия) (48 км)
Погода в Malacca (Малайзия) (79 км)
Погода в Cameron Highlands (Малайзия) (198 км)
Погода в Sitiawan (Малайзия) (200 км)
Погода в Kuantan (Малайзия) (205 км)
Погода в Ipoh (Малайзия) (216 км)
Погода в Johore Bharu / Senai (Малайзия) (250 км)
Погода в Pekanbaru (Индонезия) (252 км)
Погода в Singapore (Сингапур) (295 км)
Погода в Batam Hang Nadim Airport (Индонезия) (322 км)

Пояснения к столбцам:

Ветер - указаны скорость ветра в м/с - средняя за 10 мин, порывы в срок и между сроками (в фигурных скобках) и направление, откуда дует ветер: С - северный, СВ - северо-восточный, В - восточный, ЮВ - юго-восточный, Ю - южный, ЮЗ - юго-западный, З - западный, СЗ - северо-западный.
Видимость - горизонтальная дальность видимости в метрах или километрах. При видимости от 1 до 10 км при отсутствии осадков обычно наблюдается дымка, при ухудшении видимости до 1 км и менее - туман. В сухую погоду видимость может ухудшаться дымом, пылью или мглою.
Явления - указаны атмосферные явления, наблюдавшиеся в срок или в последний час перед сроком; фигурными скобками обозначены явления, наблюдавшиеся между сроками (за 1-3 часа до срока); квадратными скобками обозначены град или гололедные отложения с указанием их диаметра в мм.
Облачность - указаны через наклонную черту общая и нижняя облачность в баллах и высота нижней границы облаков в метрах; квадратными скобками обозначены формы облаков: Ci - перистые, Cs - перисто-слоистые, Cc - перисто-кучевые, Ac - высококучевые, As - высокослоистые, Sc - слоисто-кучевые, Ns - слоисто-дождевые, Cu - кучевые, Cb - кучево-дождевые. Подробнее классификацию облаков см. в Атласе облаков (PDF).
T - Температура воздуха - температура, измеренная на высоте 2 м над землей.
Td - Температура точки росы - температура, при понижении до которой содержащийся в воздухе водяной пар достигнет насыщения.
f - Относительная влажность воздуха - влажноcть воздуха, измеренная на высоте 2 м над землей.
Te - Эффективная температура - температура, которую ощущает одетый по сезону человек в тени. Характеристика душности погоды. При расчете учитывается влияние влажности воздуха и скорости ветра на теплоощущения человека.
Tes - Эффективная температура на солнце - температура, которую ощущает человек, с поправкой на солнечный нагрев. Характеристика знойности погоды. Зависит от высоты солнца над горизонтом, облачности и скорости ветра. Ночью, в пасмурную погоду, а также при ветре 12 м/с и более поправка равна нулю.
P - Атмосферное давление - приведенное к уровню моря атмосферное давление.
Po - Атмосферное давление - измеренное на уровне метеостанции атмосферное давление.
Tmin - Минимальная температура - минимум температуры воздуха на высоте 2 м над землей.
Tmax - Максимальная температура - максимум температуры воздуха на высоте 2 м над землей.
R - Количество осадков - Количество выпавших осадков за период времени, мм. При наведении курсора мыши на число - период времени, за который выпало указанное количество осадков.
R24 - Количество осадков - Количество выпавших осадков за 24 часа, мм.
S - Снежный покров - Высота снежного покрова, см. При наведении курсора мыши на число - состояние снежного покрова и степень покрытия местности в баллах.